Location: Kelshall
(52.0000°N, 0.0500°W)
Time: 22:21:49
(UTC+00:00)

Cosmos 2082 Rocket - Pass Details

Date: 18 September 2020
Orbit: 834 x 852 km, 71.0° (Epoch: 20 October)

Event Time Altitude Azimuth Distance (km) Brightness Sun altitude
Rises 20:37:31 0° 330° (NNW) 3,395 6.4 -22.5°
Reaches altitude 10° 20:40:09 10° 339° (NNW) 2,457 5.4 -22.8°
Maximum altitude 20:45:22 38° 46° (NE) 1,268 3.0 -23.5°
Enters shadow 20:46:14 36° 67° (ENE) 1,315 2.9 -23.6°
